When you browse on this site, cookies collect data to enhance your experience and personalize the content and advertising you see.
Visit our Privacy Policy to learn more. By continuing to use the site, you agree to this use of cookies and data.
  • In France
  • List of Countries
  • For 7 days
  • Water Temperature
  • Satellite Maps
  • Weather Map
  • Weather Widgets
  • user-avatar
    Login

    Hourly Weather Mayrhofen

    Today, 17 June, Monday

    Time Temperature Precipitation Wind Pressure Humidity
    00:00 +9°C° 0 mm 1 mps 621 mmHg 97%
    01:00 +9°C° 0 mm 1 mps 621 mmHg 97%
    02:00 +8°C° 0 mm 1 mps 620 mmHg 97%
    03:00 +8°C° 0 mm 1 mps 620 mmHg 97%
    04:00 +8°C° 0 mm 1 mps 620 mmHg 96%
    05:00 +9°C° 0 mm 1 mps 620 mmHg 92%
    06:00 +9°C° 0 mm 0 mps 620 mmHg 88%
    07:00 +10°C° 0 mm 0 mps 621 mmHg 84%
    08:00 +13°C° 0 mm 1 mps 622 mmHg 74%
    09:00 +15°C° 0 mm 1 mps 622 mmHg 63%
    10:00 +19°C° 0 mm 1 mps 623 mmHg 53%
    11:00 +18°C° 0.1 mm 2 mps 623 mmHg 50%
    12:00 +19°C° 0.1 mm 2 mps 623 mmHg 47%
    13:00 +20°C° 0.1 mm 2 mps 623 mmHg 44%
    14:00 +19°C° 0.4 mm 2 mps 622 mmHg 46%
    15:00 +19°C° 0.4 mm 2 mps 622 mmHg 49%
    16:00 +20°C° 0.4 mm 1 mps 622 mmHg 51%
    17:00 +19°C° 0.8 mm 1 mps 621 mmHg 61%
    18:00 +16°C° 0.8 mm 1 mps 621 mmHg 72%
    19:00 +15°C° 0.8 mm 1 mps 620 mmHg 82%
    20:00 +13°C° 0.4 mm 1 mps 620 mmHg 84%
    21:00 +10°C° 0.4 mm 0 mps 619 mmHg 86%
    22:00 +8°C° 0.4 mm 0 mps 619 mmHg 88%
    23:00 +9°C° 0 mm 1 mps 619 mmHg 88%

    Tomorrow, 18 June, Tuesday

    Time Temperature Precipitation Wind Pressure Humidity
    00:00 +9°C° 0 mm 1 mps 619 mmHg 88%
    01:00 +9°C° 0 mm 1 mps 619 mmHg 87%
    02:00 +9°C° 0 mm 1 mps 618 mmHg 88%
    03:00 +9°C° 0 mm 1 mps 618 mmHg 88%
    04:00 +8°C° 0 mm 1 mps 618 mmHg 88%
    05:00 +10°C° 0 mm 1 mps 619 mmHg 84%
    06:00 +12°C° 0 mm 1 mps 619 mmHg 80%
    07:00 +13°C° 0 mm 0 mps 620 mmHg 75%
    08:00 +16°C° 0.2 mm 1 mps 621 mmHg 68%
    09:00 +19°C° 0.2 mm 1 mps 621 mmHg 62%
    10:00 +20°C° 0.2 mm 1 mps 622 mmHg 55%
    11:00 +21°C° 0.6 mm 1 mps 622 mmHg 52%
    12:00 +21°C° 0.6 mm 1 mps 622 mmHg 49%
    13:00 +22°C° 0.6 mm 1 mps 622 mmHg 47%
    14:00 +21°C° 1.2 mm 1 mps 621 mmHg 54%
    15:00 +20°C° 1.2 mm 1 mps 620 mmHg 62%
    16:00 +19°C° 1.2 mm 1 mps 620 mmHg 69%
    17:00 +16°C° 1.2 mm 1 mps 619 mmHg 76%
    18:00 +15°C° 1.2 mm 1 mps 619 mmHg 83%
    19:00 +14°C° 1.2 mm 1 mps 618 mmHg 90%
    20:00 +13°C° 0.4 mm 1 mps 618 mmHg 91%
    21:00 +12°C° 0.4 mm 1 mps 618 mmHg 92%
    22:00 +11°C° 0.4 mm 1 mps 618 mmHg 92%
    23:00 +11°C° 0.1 mm 1 mps 618 mmHg 91%

    Day after tomorrow, 19 June, Wednesday

    Time Temperature Precipitation Wind Pressure Humidity
    00:00 +10°C° 0.1 mm 0 mps 618 mmHg 90%
    01:00 +9°C° 0.1 mm 0 mps 617 mmHg 89%
    02:00 +9°C° 0 mm 0 mps 617 mmHg 89%
    03:00 +8°C° 0 mm 0 mps 617 mmHg 89%
    04:00 +8°C° 0 mm 0 mps 616 mmHg 89%
    05:00 +10°C° 0 mm 0 mps 617 mmHg 84%
    06:00 +12°C° 0 mm 0 mps 618 mmHg 80%
    07:00 +13°C° 0 mm 0 mps 619 mmHg 75%
    08:00 +15°C° 0.7 mm 0 mps 619 mmHg 69%
    09:00 +16°C° 0.7 mm 0 mps 620 mmHg 62%
    10:00 +20°C° 0.7 mm 1 mps 620 mmHg 56%
    11:00 +20°C° 1.1 mm 1 mps 620 mmHg 55%
    12:00 +20°C° 1.1 mm 1 mps 620 mmHg 55%
    13:00 +20°C° 1.1 mm 1 mps 620 mmHg 54%
    14:00 +19°C° 0.5 mm 1 mps 619 mmHg 57%
    15:00 +19°C° 0.5 mm 1 mps 619 mmHg 61%
    16:00 +18°C° 0.5 mm 1 mps 618 mmHg 64%
    17:00 +16°C° 0.5 mm 1 mps 618 mmHg 70%
    18:00 +15°C° 0.5 mm 1 mps 618 mmHg 75%
    19:00 +14°C° 0.5 mm 1 mps 618 mmHg 81%
    20:00 +13°C° 0 mm 1 mps 617 mmHg 82%
    21:00 +11°C° 0 mm 1 mps 617 mmHg 83%
    22:00 +9°C° 0 mm 1 mps 617 mmHg 83%
    23:00 +9°C° 0 mm 1 mps 616 mmHg 83%

    20 June, Thursday

    Time Temperature Precipitation Wind Pressure Humidity
    00:00 +9°C° 0 mm 1 mps 616 mmHg 83%
    01:00 +7°C° 0 mm 0 mps 616 mmHg 82%
    02:00 +8°C° 0 mm 1 mps 616 mmHg 83%
    03:00 +8°C° 0 mm 1 mps 616 mmHg 83%
    04:00 +8°C° 0 mm 1 mps 616 mmHg 83%
    05:00 +9°C° 0 mm 0 mps 617 mmHg 78%
    06:00 +11°C° 0 mm 0 mps 618 mmHg 73%
    07:00 +14°C° 0 mm 0 mps 619 mmHg 68%
    08:00 +16°C° 0.1 mm 1 mps 620 mmHg 62%
    09:00 +19°C° 0.1 mm 1 mps 620 mmHg 56%
    10:00 +19°C° 0.1 mm 2 mps 621 mmHg 50%
    11:00 +19°C° 0.8 mm 2 mps 620 mmHg 55%
    12:00 +19°C° 0.8 mm 1 mps 620 mmHg 59%
    13:00 +19°C° 0.8 mm 1 mps 620 mmHg 64%
    14:00 +19°C° 1.4 mm 1 mps 620 mmHg 68%
    15:00 +17°C° 1.4 mm 2 mps 619 mmHg 73%
    16:00 +17°C° 1.4 mm 2 mps 619 mmHg 77%
    17:00 +16°C° 1.1 mm 1 mps 619 mmHg 82%
    18:00 +15°C° 1.1 mm 1 mps 619 mmHg 87%
    19:00 +14°C° 1.1 mm 1 mps 619 mmHg 91%
    20:00 +13°C° 0.4 mm 1 mps 619 mmHg 92%
    21:00 +12°C° 0.4 mm 1 mps 618 mmHg 92%
    22:00 +11°C° 0.4 mm 1 mps 618 mmHg 93%
    23:00 +11°C° 0.1 mm 1 mps 618 mmHg 92%

    21 June, Friday

    Time Temperature Precipitation Wind Pressure Humidity
    00:00 +11°C° 0.1 mm 1 mps 618 mmHg 91%
    01:00 +10°C° 0.1 mm 1 mps 618 mmHg 90%
    02:00 +10°C° 0 mm 1 mps 618 mmHg 90%
    03:00 +8°C° 0 mm 0 mps 617 mmHg 90%
    04:00 +8°C° 0 mm 0 mps 617 mmHg 91%
    05:00 +10°C° 0 mm 0 mps 618 mmHg 87%
    06:00 +11°C° 0 mm 0 mps 618 mmHg 82%
    07:00 +13°C° 0 mm 0 mps 619 mmHg 78%
    08:00 +15°C° 0.3 mm 1 mps 620 mmHg 73%
    09:00 +18°C° 0.3 mm 1 mps 620 mmHg 67%
    10:00 +18°C° 0.3 mm 2 mps 621 mmHg 61%
    11:00 +18°C° 1 mm 2 mps 620 mmHg 62%
    12:00 +18°C° 1 mm 2 mps 620 mmHg 64%
    13:00 +19°C° 1 mm 2 mps 620 mmHg 65%
    14:00 +18°C° 2 mm 2 mps 620 mmHg 69%
    15:00 +17°C° 2 mm 2 mps 619 mmHg 74%
    16:00 +18°C° 2 mm 1 mps 619 mmHg 78%
    17:00 +16°C° 1.6 mm 1 mps 619 mmHg 83%
    18:00 +14°C° 1.6 mm 1 mps 619 mmHg 88%
    19:00 +13°C° 1.6 mm 1 mps 618 mmHg 92%
    20:00 +13°C° 1.8 mm 1 mps 618 mmHg 94%
    21:00 +12°C° 1.8 mm 1 mps 618 mmHg 96%
    22:00 +11°C° 1.8 mm 1 mps 619 mmHg 98%
    23:00 +11°C° 1.9 mm 1 mps 618 mmHg 98%

    22 June, Saturday

    Time Temperature Precipitation Wind Pressure Humidity
    00:00 +11°C° 1.9 mm 1 mps 618 mmHg 97%
    01:00 +10°C° 1.9 mm 1 mps 618 mmHg 97%
    02:00 +10°C° 1.1 mm 1 mps 618 mmHg 96%
    03:00 +10°C° 1.1 mm 1 mps 618 mmHg 96%
    04:00 +10°C° 1.1 mm 1 mps 617 mmHg 95%
    05:00 +10°C° 0.2 mm 1 mps 618 mmHg 92%
    06:00 +11°C° 0.2 mm 1 mps 618 mmHg 89%
    07:00 +12°C° 0.2 mm 1 mps 618 mmHg 87%
    08:00 +13°C° 0.1 mm 1 mps 619 mmHg 81%
    09:00 +14°C° 0.1 mm 1 mps 619 mmHg 76%
    10:00 +16°C° 0.1 mm 1 mps 620 mmHg 71%
    11:00 +16°C° 1 mm 1 mps 620 mmHg 74%
    12:00 +16°C° 1 mm 2 mps 620 mmHg 77%
    13:00 +16°C° 1 mm 2 mps 620 mmHg 80%
    14:00 +16°C° 1.1 mm 2 mps 620 mmHg 80%
    15:00 +16°C° 1.1 mm 2 mps 620 mmHg 80%
    16:00 +16°C° 1.1 mm 2 mps 620 mmHg 80%
    17:00 +15°C° 0.4 mm 2 mps 620 mmHg 83%
    18:00 +15°C° 0.4 mm 2 mps 620 mmHg 86%
    19:00 +14°C° 0.4 mm 2 mps 620 mmHg 89%
    20:00 +12°C° 0.1 mm 1 mps 619 mmHg 91%
    21:00 +11°C° 0.1 mm 1 mps 619 mmHg 94%
    22:00 +9°C° 0.1 mm 1 mps 619 mmHg 96%
    23:00 +9°C° 0 mm 1 mps 619 mmHg 94%
    Show more